Location: Nairn
(57.5833°N, 3.8667°W)
Time: 02:37:00
(UTC+00:00)

UNK - Pass Details

Date: 10 December 2021
Orbit: 666 x 686 km, 98.2° (Epoch: 22 January)

Event Time Altitude Azimuth Distance (km) Brightness Sun altitude
Exits shadow 16:52:36 - 12° (NNE) 3,053 6.7 -9.7°
Rises 16:52:39 0° 12° (NNE) 3,034 6.7 -9.7°
Reaches altitude 10° 16:55:12 10° 359° (N) 2,113 6.0 -10.0°
Maximum altitude 16:58:54 25° 305° (NW) 1,367 5.7 -10.5°
Drops below altitude 10° 17:02:35 10° 252° (WSW) 2,097 7.8 -10.9°
Sets 17:05:07 0° 239° (WSW) 3,005 9.2 -11.2°
